Regional Weather Roundup
Issued by NWS

Home | Current Version | Previous Version | Text Only | Print | Product List | Glossary Off
Versions: 1 2 3 4 5 6 7 8 9 10 11 12 13 14 15 16 17 18 19 20 21 22 23 24 25 26 27 28 29 30 31 32 33 34 35 36 37 38 39 40 41 42 43 44 45 46 47 48 49 50

000
ASUS45 KPSR 250810
RWRAZ

ARIZONA HOURLY REGIONAL WEATHER ROUNDUP
NATIONAL WEATHER SERVICE PHOENIX AZ
100 AM MST TUE APR 25 2017

NOTE: FAIR INDICATES FEW OR NO CLOUDS BELOW 12,000 FEET WITH NO
SIGNIFICANT WEATHER AND/OR OBSTRUCTIONS TO VISIBILITY.

AZZ001>003-036-250900-
NORTHWEST ARIZONA

CITY           SKY/WX    TMP DP  RH WIND       PRES   REMARKS
BULLHEAD CITY  PTCLDY    73  36  25 S7        29.58S
KINGMAN        CLOUDY    57  31  37 SW9       29.68F
$$

AZZ004>008-015-016-018-250900-
NORTH CENTRAL ARIZONA

CITY           SKY/WX    TMP DP  RH WIND       PRES   REMARKS
GRAND CANYON   CLOUDY    47  30  51 SW8       29.78F
WILLIAMS       CLOUDY    52  27  37 SW8G16    29.81S
PRESCOTT       MOCLDY    58  30  34 S5        29.75F
FLAGSTAFF      CLOUDY    50  26  39 SW7       29.80S
PAYSON         CLOUDY    61  32  33 SW13G22   29.80F
PAGE           CLOUDY    66  27  23 VRB3      29.63S
$$

AZZ009>014-017-250900-
NORTHEAST ARIZONA

CITY           SKY/WX    TMP DP  RH WIND       PRES   REMARKS
WINSLOW        CLOUDY    60  22  23 SW14      29.70F
SAINT JOHNS    CLOUDY    58  19  22 W9        29.76F
WINDOW ROCK    CLOUDY    54  17  23 SW12      29.77F
SHOW LOW       CLOUDY    52  16  24 SW13G18   29.82F
$$

AZZ540-542>544-546-548-250900-
GREATER PHOENIX AREA

CITY           SKY/WX    TMP DP  RH WIND       PRES   REMARKS
PHOENIX        CLOUDY    78  29  16 W16       29.63S
BUCKEYE        MOCLDY    72  41  33 SW13G18   29.63S
LUKE AFB       CLOUDY    73  36  25 SW16      29.62R
DEER VALLEY    CLOUDY    74  32  21 SW14      29.64R
SCOTTSDALE     CLOUDY    77  30  17 SW10      29.66S
MESA-GATEWAY   CLOUDY    73  28  19 SW9       29.66S
$$

AZZ539-553-250900-
SOUTHWEST MARICOPA COUNTY AND PINAL COUNTY

CITY           SKY/WX    TMP DP  RH WIND       PRES   REMARKS
CASA GRANDE    CLOUDY    74  29  19 S16       29.66F
GILA BEND      FAIR      74  35  23 SW13      29.64S
$$

AZZ503-504-507>509-250900-
SOUTHEAST ARIZONA

CITY           SKY/WX    TMP DP  RH WIND       PRES   REMARKS
TUCSON         CLOUDY    73  18  12 S13       29.76F
DAVIS-MONTHAN  MOCLDY    72  17  12 SW16G22   29.75F
NOGALES        PTCLDY    62  16  16 S7        29.85F
SIERRA VISTA   MOCLDY    66  15  14 SW23G30   29.84F
DOUGLAS        MOCLDY    65  20  17 SW7       29.84F
SAFFORD        MOCLDY    69  18  14 NW14      29.70S
$$

AZZ532-250900-
SOUTHWEST ARIZONA

CITY           SKY/WX    TMP DP  RH WIND       PRES   REMARKS
YUMA           MOCLDY    71  47  42 NW23G31   29.64F
$$

CAZ041-043-047-048-061-525>527-560>570-250900-
SOUTHERN CALIFORNIA

CITY           SKY/WX    TMP DP  RH WIND       PRES   REMARKS
DOWNTOWN L.A.  CLEAR     60  54  80 CALM      29.86S
L.A. AIRPORT   PTCLDY    61  54  77 NW6       29.87S
SAN DIEGO      CLOUDY    62  52  69 S8        29.91S
BURBANK        CLEAR     64  42  44 N17G28    29.86S
ONTARIO        MOCLDY    56  50  80 NW8       29.87R
RIVERSIDE      MOCLDY    58  51  78 CALM      29.87S
PALM SPRINGS   CLOUDY    72  46  39 SE13      29.63F
EL CENTRO NAS  PTCLDY    70  43  37 W25G40    29.69F
IMPERIAL       PTCLDY    69  44  40 W8        29.67S
BLYTHE         PTCLDY    73  47  39 S8        29.62F
NEEDLES        MOCLDY    73  37  27 CALM      29.59S
$$

NVZ020-UTZ003-250900-
SOUTHERN NEVADA-UTAH

CITY           SKY/WX    TMP DP  RH WIND       PRES   REMARKS
LAS VEGAS      MOCLDY    69  31  24 CALM      29.64R
SALT LAKE CITY CLOUDY    43  39  86 E8        29.76R
$$

NMZ009-TXZ055-250900-
NEW MEXICO-WEST TEXAS

CITY           SKY/WX    TMP DP  RH WIND       PRES   REMARKS
ALBUQUERQUE    CLOUDY    64  21  19 SW9       29.73S
EL PASO        CLOUDY    74  16  11 SW14G21   29.73S
$$


........................KEY........................
SKY/WX - SKY CONDITION/WEATHER
TMP    - TEMPERATURE IN FAHRENHEIT
DP     - DEW POINT IN FAHRENHEIT
RH     - RELATIVE HUMIDITY IN PERCENT
WIND   - DIRECTION AND SPEED IN MILES PER HOUR (MPH)
VRB    - VARIABLE WIND DIRECTION
PRES   - MEAN SEA LEVEL PRESSURE IN INCHES OF MERCURY
         F - FALLING PRESSURE   R - RISING PRESSURE
         S - STEADY PRESSURE
VSB    - VISIBILITY IN MILES
HX     - HEAT INDEX IN FAHRENHEIT
WCI    - WIND CHILL INDEX IN FAHRENHEIT
TC     - TEMPERATURE IN CELSIUS WHICH IS ALSO KNOWN AS
         TEMPERATURE IN CENTIGRADE
AFB    - AIR FORCE BASE
         LUKE AFB IS LUKE AIR FORCE BASE
         DAVIS-MONTHAN IS DAVIS-MONTHAN AIR FORCE BASE
NAS    - NAVAL AIR STATION
         EL CENTRO NAS IS EL CENTRO NAVAL AIR STATION
N/A    - NOT AVAILABLE




USA.gov is the U.S. government's official web portal to all federal, state and local government web resources and services.